Regional Weather Roundup
Issued by NWS Raleigh/Durham, NC

Home | Current Version | Previous Version | Text Only | Print | Product List | Glossary On
Versions: 1 2 3 4 5 6 7 8 9 10 11 12 13 14 15 16 17 18 19 20 21 22 23 24 25 26 27 28 29 30 31 32 33 34 35 36 37 38 39 40 41 42 43 44 45 46 47 48 49 50
000
ASUS42 KRAH 282110
RWRRAH
NORTH CAROLINA WEATHER ROUNDUP
NATIONAL WEATHER SERVICE RALEIGH NC
400 PM EST SAT FEB 28 2015

NOTE: "FAIR" INDICATES FEW OR NO CLOUDS BELOW 12,000 FEET WITH NO
SIGNIFICANT WEATHER AND/OR OBSTRUCTIONS TO VISIBILITY.

NCZ001-053-055-056-065-067-282200-
WESTERN NORTH CAROLINA

CITY           SKY/WX    TMP DP  RH WIND       PRES   REMARKS
ASHEVILLE      PTSUNNY   38  18  44 S8        30.53F WCI  32
JEFFERSON      MOSUNNY   32  17  54 SE3       30.50S
MORGANTON      MOSUNNY   41  20  42 E3        30.64F
HICKORY        MOSUNNY   40  18  41 VRB3      30.60F
RUTHERFORDTON  PTSUNNY   43  20  41 E6        30.60F
MOUNT AIRY     MOSUNNY   37  16  43 NE3       30.64F
BOONE          SUNNY     33  17  51 E5        30.51S WCI  28
$$

NCZ021-022-025-041-071-084-088-282200-
CENTRAL NORTH CAROLINA

CITY           SKY/WX    TMP DP  RH WIND       PRES   REMARKS
CHARLOTTE      CLOUDY    43  18  36 E8G18     30.63F
GREENSBORO     CLOUDY    35  17  47 NE6       30.64F WCI  30
WINSTON-SALEM  MOSUNNY   35  15  44 E6        30.65F WCI  30
RALEIGH-DURHAM PTSUNNY   37  13  37 E9        30.69F WCI  30
FORT BRAGG     PTSUNNY   42  13  31 VRB6      30.66S
FAYETTEVILLE   MOSUNNY   43  16  33 NE9       30.66F
BURLINGTON     MOSUNNY   37  12  35 E6        30.67F WCI  32
LAURINBURG     SUNNY     45  21  38 NE13      30.65F
$$

NCZ011-015-027-028-043-044-047-080-103-282200-
NORTHEASTERN NORTH CAROLINA

CITY           SKY/WX    TMP DP  RH WIND       PRES   REMARKS
ROCKY MT-WILSO MOSUNNY   39  15  37 VRB6G17   30.71F WCI  35
GREENVILLE     MOSUNNY   41  21  45 E10       30.69F
WASHINGTON     SUNNY     38  19  44 NE9G16    30.71F WCI  32
ELIZABETH CITY SUNNY     33  17  51 NE15      30.74F WCI  23
MANTEO         SUNNY     34  21  60 N18G25    30.73S WCI  23
CAPE HATTERAS  CLOUDY    34  27  75 N16G28    30.69R WCI  24
$$

NCZ078-087-090-091-093-098-101-282200-
SOUTHEASTERN NORTH CAROLINA

CITY           SKY/WX    TMP DP  RH WIND       PRES   REMARKS
LUMBERTON      SUNNY     45  24  43 NE14      30.64F
GOLDSBORO      NOT AVBL
KINSTON        MOSUNNY   41  21  45 N10       30.69F
KENANSVILLE    SUNNY     40  22  47 N7        30.68F
NEW BERN       SUNNY     42  20  41 NE13      30.70F
CHERRY POINT   MOSUNNY   43  20  39 NE16      30.69S
BEAUFORT       CLOUDY    39  25  57 N18G28    30.67S WCI  30
JACKSONVILLE   CLOUDY    43  20  39 N15       30.66S
WILMINGTON     CLOUDY    47  23  38 NE16      30.64R
$$




USA.gov is the U.S. government's official web portal to all federal, state and local government web resources and services.